{"data":{"norad_id":67889,"epoch":"2026-09-19T01:44:14.809632Z","epoch_age_seconds":186519,"freshness":"STALE","line1":"1 67889U 26035L   26262.07239363  .00027144  00000+0  84022-3 0  9991","line2":"2 67889  97.2850 193.9345 0003026  99.8422 260.3162 15.33436989 33625","mean_motion":15.33436989,"eccentricity":0.0003026,"inclination_deg":97.285,"raan_deg":193.9345,"arg_perigee_deg":99.8422,"mean_anomaly_deg":260.3162,"bstar":0.00084022,"rev_number":3362,"period_min":93.906695242761,"perigee_km":463.49610484835,"apogee_km":467.63791451501,"semimajor_km":6843.7040096817,"source":"CELESTRAK","updated_at":"2026-09-20T09:00:43.697432Z"}}